Year,Month,Day,Hour,Minute,Value (Times are PST for windgust in km/hr)
2021,08,07,00,00,8.00
2021,08,07,00,01,9.70
2021,08,07,00,02,9.70
2021,08,07,00,03,9.70
2021,08,07,00,04,9.70
2021,08,07,00,05,9.70
2021,08,07,00,06,9.70
2021,08,07,00,07,9.70
2021,08,07,00,08,9.70
2021,08,07,00,09,9.70
2021,08,07,00,10,9.70
2021,08,07,00,11,12.90
2021,08,07,00,12,12.90
2021,08,07,00,13,12.90
2021,08,07,00,14,12.90
2021,08,07,00,15,12.90
2021,08,07,00,16,4.80
2021,08,07,00,17,9.70
2021,08,07,00,18,11.30
2021,08,07,00,19,11.30
2021,08,07,00,20,11.30
2021,08,07,00,21,8.00
2021,08,07,00,22,8.00
2021,08,07,00,23,8.00
2021,08,07,00,24,8.00
2021,08,07,00,25,8.00
2021,08,07,00,26,6.40
2021,08,07,00,27,6.40
2021,08,07,00,28,6.40
2021,08,07,00,29,8.00
2021,08,07,00,30,8.00
2021,08,07,00,31,6.40
2021,08,07,00,32,6.40
2021,08,07,00,33,6.40
2021,08,07,00,34,6.40
2021,08,07,00,35,6.40
2021,08,07,00,36,3.20
2021,08,07,00,37,3.20
2021,08,07,00,38,4.80
2021,08,07,00,39,4.80
2021,08,07,00,40,4.80
2021,08,07,00,41,4.80
2021,08,07,00,42,4.80
2021,08,07,00,43,4.80
2021,08,07,00,44,4.80
2021,08,07,00,45,4.80
2021,08,07,00,46,3.20
2021,08,07,00,47,3.20
2021,08,07,00,48,3.20
2021,08,07,00,49,3.20
2021,08,07,00,50,4.80
2021,08,07,00,51,4.80
2021,08,07,00,52,4.80
2021,08,07,00,53,4.80
2021,08,07,00,54,4.80
2021,08,07,00,55,4.80
2021,08,07,00,56,1.60
2021,08,07,00,57,1.60
2021,08,07,00,58,1.60
2021,08,07,00,59,1.60
2021,08,07,01,00,3.20
2021,08,07,01,01,1.60
2021,08,07,01,02,1.60
2021,08,07,01,03,1.60
2021,08,07,01,04,3.20
2021,08,07,01,05,3.20
2021,08,07,01,06,1.60
2021,08,07,01,07,1.60
2021,08,07,01,08,1.60
2021,08,07,01,09,1.60
2021,08,07,01,10,1.60
2021,08,07,01,11,0.00
2021,08,07,01,12,0.00
2021,08,07,01,13,0.00
2021,08,07,01,14,0.00
2021,08,07,01,15,1.60
2021,08,07,01,16,3.20
2021,08,07,01,17,3.20
2021,08,07,01,18,3.20
2021,08,07,01,19,3.20
2021,08,07,01,20,3.20
2021,08,07,01,21,0.00
2021,08,07,01,22,0.00
2021,08,07,01,23,0.00
2021,08,07,01,24,0.00
2021,08,07,01,25,0.00
2021,08,07,01,26,0.00
2021,08,07,01,27,0.00
2021,08,07,01,28,0.00
2021,08,07,01,29,1.60
2021,08,07,01,30,3.20
2021,08,07,01,31,3.20
2021,08,07,01,32,4.80
2021,08,07,01,33,4.80
2021,08,07,01,34,4.80
2021,08,07,01,35,4.80
2021,08,07,01,36,4.80
2021,08,07,01,37,4.80
2021,08,07,01,38,4.80
2021,08,07,01,39,4.80
2021,08,07,01,40,4.80
2021,08,07,01,41,1.60
2021,08,07,01,42,1.60
2021,08,07,01,43,3.20
2021,08,07,01,44,3.20
2021,08,07,01,45,4.80
2021,08,07,01,46,4.80
2021,08,07,01,47,4.80
2021,08,07,01,48,4.80
2021,08,07,01,49,4.80
2021,08,07,01,50,6.40
2021,08,07,01,51,3.20
2021,08,07,01,52,3.20
2021,08,07,01,53,4.80
2021,08,07,01,54,4.80
2021,08,07,01,55,4.80
2021,08,07,01,56,8.00
2021,08,07,01,57,8.00
2021,08,07,01,58,8.00
2021,08,07,01,59,8.00
2021,08,07,02,00,8.00
2021,08,07,02,01,3.20
2021,08,07,02,02,3.20
2021,08,07,02,03,3.20
2021,08,07,02,04,4.80
2021,08,07,02,05,4.80
2021,08,07,02,06,4.80
2021,08,07,02,07,4.80
2021,08,07,02,08,4.80
2021,08,07,02,09,4.80
2021,08,07,02,10,4.80
2021,08,07,02,11,3.20
2021,08,07,02,12,3.20
2021,08,07,02,13,3.20
2021,08,07,02,14,4.80
2021,08,07,02,15,4.80
2021,08,07,02,16,3.20
2021,08,07,02,17,3.20
2021,08,07,02,18,3.20
2021,08,07,02,19,3.20
2021,08,07,02,20,4.80
2021,08,07,02,21,4.80
2021,08,07,02,22,4.80
2021,08,07,02,23,4.80
2021,08,07,02,24,4.80
2021,08,07,02,25,4.80
2021,08,07,02,26,3.20
2021,08,07,02,27,3.20
2021,08,07,02,28,3.20
2021,08,07,02,29,3.20
2021,08,07,02,30,3.20
2021,08,07,02,31,3.20
2021,08,07,02,32,3.20
2021,08,07,02,33,3.20
2021,08,07,02,34,3.20
2021,08,07,02,35,3.20
2021,08,07,02,36,1.60
2021,08,07,02,37,3.20
2021,08,07,02,38,3.20
2021,08,07,02,39,3.20
2021,08,07,02,40,3.20
2021,08,07,02,41,1.60
2021,08,07,02,42,3.20
2021,08,07,02,43,3.20
2021,08,07,02,44,3.20
2021,08,07,02,45,3.20
2021,08,07,02,46,1.60
2021,08,07,02,47,3.20
2021,08,07,02,48,3.20
2021,08,07,02,49,3.20
2021,08,07,02,50,3.20
2021,08,07,02,51,4.80
2021,08,07,02,52,4.80
2021,08,07,02,53,4.80
2021,08,07,02,54,4.80
2021,08,07,02,55,4.80
2021,08,07,02,56,3.20
2021,08,07,02,57,3.20
2021,08,07,02,58,3.20
2021,08,07,02,59,3.20
2021,08,07,03,00,3.20
2021,08,07,03,01,1.60
2021,08,07,03,02,3.20
2021,08,07,03,03,3.20
2021,08,07,03,04,4.80
2021,08,07,03,05,6.40
2021,08,07,03,06,4.80
2021,08,07,03,07,4.80
2021,08,07,03,08,4.80
2021,08,07,03,09,4.80
2021,08,07,03,10,4.80
2021,08,07,03,11,1.60
2021,08,07,03,12,3.20
2021,08,07,03,13,3.20
2021,08,07,03,14,3.20
2021,08,07,03,15,3.20
2021,08,07,03,16,1.60
2021,08,07,03,17,3.20
2021,08,07,03,18,3.20
2021,08,07,03,19,3.20
2021,08,07,03,20,4.80
2021,08,07,03,21,3.20
2021,08,07,03,22,3.20
2021,08,07,03,23,3.20
2021,08,07,03,24,3.20
2021,08,07,03,25,3.20
2021,08,07,03,26,3.20
2021,08,07,03,27,3.20
2021,08,07,03,28,3.20
2021,08,07,03,29,3.20
2021,08,07,03,30,3.20
2021,08,07,03,31,3.20
2021,08,07,03,32,4.80
2021,08,07,03,33,4.80
2021,08,07,03,34,4.80
2021,08,07,03,35,4.80
2021,08,07,03,36,3.20
2021,08,07,03,37,3.20
2021,08,07,03,38,3.20
2021,08,07,03,39,3.20
2021,08,07,03,40,4.80
2021,08,07,03,41,4.80
2021,08,07,03,42,4.80
2021,08,07,03,43,4.80
2021,08,07,03,44,4.80
2021,08,07,03,45,4.80
2021,08,07,03,46,4.80
2021,08,07,03,47,4.80
2021,08,07,03,48,4.80
2021,08,07,03,49,4.80
2021,08,07,03,50,6.40
2021,08,07,03,51,4.80
2021,08,07,03,52,6.40
2021,08,07,03,53,6.40
2021,08,07,03,54,6.40
2021,08,07,03,55,6.40
2021,08,07,03,56,4.80
2021,08,07,03,57,4.80
2021,08,07,03,58,4.80
2021,08,07,03,59,4.80
2021,08,07,04,00,4.80
2021,08,07,04,01,3.20
2021,08,07,04,02,3.20
2021,08,07,04,03,4.80
2021,08,07,04,04,4.80
2021,08,07,04,05,4.80
2021,08,07,04,06,4.80
2021,08,07,04,07,4.80
2021,08,07,04,08,4.80
2021,08,07,04,09,4.80
2021,08,07,04,10,4.80
2021,08,07,04,11,1.60
2021,08,07,04,12,1.60
2021,08,07,04,13,1.60
2021,08,07,04,14,3.20
2021,08,07,04,15,3.20
2021,08,07,04,16,3.20
2021,08,07,04,17,3.20
2021,08,07,04,18,3.20
2021,08,07,04,19,3.20
2021,08,07,04,20,3.20
2021,08,07,04,21,1.60
2021,08,07,04,22,1.60
2021,08,07,04,23,1.60
2021,08,07,04,24,1.60
2021,08,07,04,25,1.60
2021,08,07,04,26,0.00
2021,08,07,04,27,1.60
2021,08,07,04,28,3.20
2021,08,07,04,29,3.20
2021,08,07,04,30,3.20
2021,08,07,04,31,0.00
2021,08,07,04,32,0.00
2021,08,07,04,33,0.00
2021,08,07,04,34,0.00
2021,08,07,04,35,0.00
2021,08,07,04,36,1.60
2021,08,07,04,37,1.60
2021,08,07,04,38,1.60
2021,08,07,04,39,3.20
2021,08,07,04,40,3.20
2021,08,07,04,41,3.20
2021,08,07,04,42,3.20
2021,08,07,04,43,3.20
2021,08,07,04,44,3.20
2021,08,07,04,45,3.20
2021,08,07,04,46,3.20
2021,08,07,04,47,3.20
2021,08,07,04,48,3.20
2021,08,07,04,49,3.20
2021,08,07,04,50,3.20
2021,08,07,04,51,0.00
2021,08,07,04,52,0.00
2021,08,07,04,53,1.60
2021,08,07,04,54,1.60
2021,08,07,04,55,1.60
2021,08,07,04,56,1.60
2021,08,07,04,57,3.20
2021,08,07,04,58,3.20
2021,08,07,04,59,3.20
2021,08,07,05,00,3.20
2021,08,07,05,01,3.20
2021,08,07,05,02,3.20
2021,08,07,05,03,4.80
2021,08,07,05,04,4.80
2021,08,07,05,05,4.80
2021,08,07,05,06,0.00
2021,08,07,05,07,0.00
2021,08,07,05,08,0.00
2021,08,07,05,09,3.20
2021,08,07,05,10,3.20
2021,08,07,05,11,1.60
2021,08,07,05,12,1.60
2021,08,07,05,13,1.60
2021,08,07,05,14,1.60
2021,08,07,05,15,1.60
2021,08,07,05,16,0.00
2021,08,07,05,17,1.60
2021,08,07,05,18,1.60
2021,08,07,05,19,1.60
2021,08,07,05,20,1.60
2021,08,07,05,21,1.60
2021,08,07,05,22,1.60
2021,08,07,05,23,1.60
2021,08,07,05,24,1.60
2021,08,07,05,25,1.60
2021,08,07,05,26,1.60
2021,08,07,05,27,1.60
2021,08,07,05,28,1.60
2021,08,07,05,29,1.60
2021,08,07,05,30,1.60
2021,08,07,05,31,3.20
2021,08,07,05,32,3.20
2021,08,07,05,33,3.20
2021,08,07,05,34,3.20
2021,08,07,05,35,3.20
2021,08,07,05,36,3.20
2021,08,07,05,37,3.20
2021,08,07,05,38,3.20
2021,08,07,05,39,3.20
2021,08,07,05,40,3.20
2021,08,07,05,41,3.20
2021,08,07,05,42,3.20
2021,08,07,05,43,3.20
2021,08,07,05,44,3.20
2021,08,07,05,45,3.20
2021,08,07,05,46,1.60
2021,08,07,05,47,1.60
2021,08,07,05,48,1.60
2021,08,07,05,49,1.60
2021,08,07,05,50,1.60
2021,08,07,05,51,3.20
2021,08,07,05,52,3.20
2021,08,07,05,53,3.20
2021,08,07,05,54,3.20
2021,08,07,05,55,3.20
2021,08,07,05,56,0.00
2021,08,07,05,57,1.60
2021,08,07,05,58,1.60
2021,08,07,05,59,1.60
2021,08,07,06,00,1.60
2021,08,07,06,01,0.00
2021,08,07,06,02,0.00
2021,08,07,06,03,1.60
2021,08,07,06,04,1.60
2021,08,07,06,05,1.60
2021,08,07,06,06,1.60
2021,08,07,06,07,1.60
2021,08,07,06,08,1.60
2021,08,07,06,09,1.60
2021,08,07,06,10,1.60
2021,08,07,06,11,1.60
2021,08,07,06,12,1.60
2021,08,07,06,13,1.60
2021,08,07,06,14,1.60
2021,08,07,06,15,1.60
2021,08,07,06,16,3.20
2021,08,07,06,17,3.20
2021,08,07,06,18,3.20
2021,08,07,06,19,3.20
2021,08,07,06,20,3.20
2021,08,07,06,21,1.60
2021,08,07,06,22,1.60
2021,08,07,06,23,1.60
2021,08,07,06,24,1.60
2021,08,07,06,25,1.60
2021,08,07,06,26,1.60
2021,08,07,06,27,1.60
2021,08,07,06,28,1.60
2021,08,07,06,29,1.60
2021,08,07,06,30,1.60
2021,08,07,06,31,0.00
2021,08,07,06,32,0.00
2021,08,07,06,33,0.00
2021,08,07,06,34,0.00
2021,08,07,06,35,0.00
2021,08,07,06,36,0.00
2021,08,07,06,37,1.60
2021,08,07,06,38,1.60
2021,08,07,06,39,1.60
2021,08,07,06,40,1.60
2021,08,07,06,41,1.60
2021,08,07,06,42,3.20
2021,08,07,06,43,3.20
2021,08,07,06,44,3.20
2021,08,07,06,45,3.20
2021,08,07,06,46,3.20
2021,08,07,06,47,4.80
2021,08,07,06,48,4.80
2021,08,07,06,49,4.80
2021,08,07,06,50,4.80
2021,08,07,06,51,3.20
2021,08,07,06,52,3.20
2021,08,07,06,53,3.20
2021,08,07,06,54,3.20
2021,08,07,06,55,3.20
2021,08,07,06,56,3.20
2021,08,07,06,57,3.20
2021,08,07,06,58,3.20
2021,08,07,06,59,3.20
2021,08,07,07,00,3.20
2021,08,07,07,01,1.60
2021,08,07,07,02,1.60
2021,08,07,07,03,1.60
2021,08,07,07,04,1.60
2021,08,07,07,05,1.60
2021,08,07,07,06,1.60
2021,08,07,07,07,1.60
2021,08,07,07,08,1.60
2021,08,07,07,09,1.60
2021,08,07,07,10,1.60
2021,08,07,07,11,0.00
2021,08,07,07,12,0.00
2021,08,07,07,13,0.00
2021,08,07,07,14,0.00
2021,08,07,07,15,0.00
2021,08,07,07,16,0.00
2021,08,07,07,17,1.60
2021,08,07,07,18,1.60
2021,08,07,07,19,1.60
2021,08,07,07,20,3.20
2021,08,07,07,21,3.20
2021,08,07,07,22,4.80
2021,08,07,07,23,4.80
2021,08,07,07,24,4.80
2021,08,07,07,25,4.80
2021,08,07,07,26,3.20
2021,08,07,07,27,3.20
2021,08,07,07,28,3.20
2021,08,07,07,29,3.20
2021,08,07,07,30,3.20
2021,08,07,07,31,1.60
2021,08,07,07,32,3.20
2021,08,07,07,33,3.20
2021,08,07,07,34,3.20
2021,08,07,07,35,3.20
2021,08,07,07,36,1.60
2021,08,07,07,37,1.60
2021,08,07,07,38,1.60
2021,08,07,07,39,1.60
2021,08,07,07,40,1.60
2021,08,07,07,41,0.00
2021,08,07,07,42,1.60
2021,08,07,07,43,1.60
2021,08,07,07,44,1.60
2021,08,07,07,45,3.20
2021,08,07,07,46,1.60
2021,08,07,07,47,3.20
2021,08,07,07,48,3.20
2021,08,07,07,49,3.20
2021,08,07,07,50,3.20
2021,08,07,07,51,0.00
2021,08,07,07,52,0.00
2021,08,07,07,53,0.00
2021,08,07,07,54,1.60
2021,08,07,07,55,3.20
2021,08,07,07,56,1.60
2021,08,07,07,57,4.80
2021,08,07,07,58,4.80
2021,08,07,07,59,4.80
2021,08,07,08,00,4.80
2021,08,07,08,01,1.60
2021,08,07,08,02,3.20
2021,08,07,08,03,3.20
2021,08,07,08,04,4.80
2021,08,07,08,05,4.80
2021,08,07,08,06,3.20
2021,08,07,08,07,3.20
2021,08,07,08,08,3.20
2021,08,07,08,09,3.20
2021,08,07,08,10,3.20
2021,08,07,08,11,1.60
2021,08,07,08,12,1.60
2021,08,07,08,13,1.60
2021,08,07,08,14,1.60
2021,08,07,08,15,1.60
2021,08,07,08,16,1.60
2021,08,07,08,17,1.60
2021,08,07,08,18,1.60
2021,08,07,08,19,1.60
2021,08,07,08,20,1.60
2021,08,07,08,21,1.60
2021,08,07,08,22,1.60
2021,08,07,08,23,1.60
2021,08,07,08,24,1.60
2021,08,07,08,25,1.60
2021,08,07,08,26,0.00
2021,08,07,08,27,0.00
2021,08,07,08,28,0.00
2021,08,07,08,29,0.00
2021,08,07,08,30,0.00
2021,08,07,08,31,0.00
2021,08,07,08,33,1.60
2021,08,07,08,34,3.20
2021,08,07,08,35,3.20
2021,08,07,08,36,0.00
2021,08,07,08,37,0.00
2021,08,07,08,38,0.00
2021,08,07,08,39,0.00
2021,08,07,08,40,0.00
2021,08,07,08,41,0.00
2021,08,07,08,42,3.20
2021,08,07,08,43,3.20
2021,08,07,08,44,3.20
2021,08,07,08,45,3.20
2021,08,07,08,46,0.00
2021,08,07,08,47,0.00
2021,08,07,08,48,1.60
2021,08,07,08,49,3.20
2021,08,07,08,50,3.20
2021,08,07,08,51,3.20
2021,08,07,08,52,3.20
2021,08,07,08,53,3.20
2021,08,07,08,54,3.20
2021,08,07,08,55,3.20
2021,08,07,08,56,1.60
2021,08,07,08,57,1.60
2021,08,07,08,58,1.60
2021,08,07,09,00,3.20
2021,08,07,09,01,3.20
2021,08,07,09,02,3.20
2021,08,07,09,03,3.20
2021,08,07,09,04,3.20
2021,08,07,09,05,3.20
2021,08,07,09,07,1.60
2021,08,07,09,08,1.60
2021,08,07,09,09,1.60
2021,08,07,09,10,1.60
2021,08,07,09,12,0.00
2021,08,07,09,13,0.00
2021,08,07,09,14,1.60
2021,08,07,09,15,1.60
2021,08,07,09,17,1.60
2021,08,07,09,18,3.20
2021,08,07,09,20,3.20
2021,08,07,09,21,0.00
2021,08,07,09,22,1.60
2021,08,07,09,23,1.60
2021,08,07,09,24,1.60
2021,08,07,09,25,1.60
2021,08,07,09,26,0.00
2021,08,07,09,28,0.00
2021,08,07,09,29,0.00
2021,08,07,09,30,0.00
2021,08,07,09,31,0.00
2021,08,07,09,32,0.00
2021,08,07,09,33,0.00
2021,08,07,09,34,0.00
2021,08,07,09,35,1.60
2021,08,07,09,36,1.60
2021,08,07,09,37,1.60
2021,08,07,09,38,1.60
2021,08,07,09,39,4.80
2021,08,07,09,40,4.80
2021,08,07,09,41,3.20
2021,08,07,09,42,4.80
2021,08,07,09,43,6.40
2021,08,07,09,44,6.40
2021,08,07,09,45,6.40
2021,08,07,09,46,3.20
2021,08,07,09,47,3.20
2021,08,07,09,48,3.20
2021,08,07,09,49,3.20
2021,08,07,09,50,3.20
2021,08,07,09,51,4.80
2021,08,07,09,52,4.80
2021,08,07,09,54,4.80
2021,08,07,09,55,4.80
2021,08,07,09,56,0.00
2021,08,07,09,57,0.00
2021,08,07,09,58,1.60
2021,08,07,09,59,3.20
2021,08,07,10,00,3.20
2021,08,07,10,01,3.20
2021,08,07,10,02,3.20
2021,08,07,10,03,3.20
2021,08,07,10,04,3.20
2021,08,07,10,05,3.20
2021,08,07,10,06,3.20
2021,08,07,10,07,3.20
2021,08,07,10,08,4.80
2021,08,07,10,09,4.80
2021,08,07,10,10,1.60
2021,08,07,10,12,1.60
2021,08,07,10,13,3.20
2021,08,07,10,14,3.20
2021,08,07,10,15,3.20
2021,08,07,10,16,3.20
2021,08,07,10,17,3.20
2021,08,07,10,18,3.20
2021,08,07,10,19,3.20
2021,08,07,10,20,3.20
2021,08,07,10,21,4.80
2021,08,07,10,22,4.80
2021,08,07,10,23,4.80
2021,08,07,10,24,4.80
2021,08,07,10,25,6.40
2021,08,07,10,26,4.80
2021,08,07,10,27,4.80
2021,08,07,10,28,4.80
2021,08,07,10,29,4.80
2021,08,07,10,30,1.60
2021,08,07,10,32,1.60
2021,08,07,10,33,1.60
2021,08,07,10,34,3.20
2021,08,07,10,35,3.20
2021,08,07,10,36,1.60
2021,08,07,10,37,3.20
2021,08,07,10,38,3.20
2021,08,07,10,39,3.20
2021,08,07,10,40,3.20
2021,08,07,10,41,3.20
2021,08,07,10,42,3.20
2021,08,07,10,43,3.20
2021,08,07,10,44,3.20
2021,08,07,10,45,3.20
2021,08,07,10,46,3.20
2021,08,07,10,47,3.20
2021,08,07,10,49,3.20
2021,08,07,10,50,4.80
2021,08,07,10,51,4.80
2021,08,07,10,53,6.40
2021,08,07,10,54,6.40
2021,08,07,10,55,6.40
2021,08,07,10,57,3.20
2021,08,07,10,58,3.20
2021,08,07,10,59,3.20
2021,08,07,11,00,3.20
2021,08,07,11,01,3.20
2021,08,07,11,02,3.20
2021,08,07,11,03,3.20
2021,08,07,11,04,3.20
2021,08,07,11,05,3.20
2021,08,07,11,06,3.20
2021,08,07,11,07,8.00
2021,08,07,11,08,8.00
2021,08,07,11,09,8.00
2021,08,07,11,10,6.40
2021,08,07,11,12,6.40
2021,08,07,11,13,6.40
2021,08,07,11,14,8.00
2021,08,07,11,15,8.00
2021,08,07,11,17,8.00
2021,08,07,11,18,8.00
2021,08,07,11,19,8.00
2021,08,07,11,20,8.00
2021,08,07,11,21,3.20
2021,08,07,11,22,3.20
2021,08,07,11,23,3.20
2021,08,07,11,24,4.80
2021,08,07,11,25,4.80
2021,08,07,11,26,3.20
2021,08,07,11,27,4.80
2021,08,07,11,28,4.80
2021,08,07,11,29,4.80
2021,08,07,11,30,4.80
2021,08,07,11,31,3.20
2021,08,07,11,32,6.40
2021,08,07,11,33,6.40
2021,08,07,11,34,6.40
2021,08,07,11,35,4.80
2021,08,07,11,37,4.80
2021,08,07,11,38,4.80
2021,08,07,11,39,4.80
2021,08,07,11,40,4.80
2021,08,07,11,41,6.40
2021,08,07,11,42,6.40
2021,08,07,11,43,6.40
2021,08,07,11,44,6.40
2021,08,07,11,45,6.40
2021,08,07,11,46,3.20
2021,08,07,11,47,4.80
2021,08,07,11,48,4.80
2021,08,07,11,49,4.80
2021,08,07,11,50,4.80
2021,08,07,11,51,6.40
2021,08,07,11,52,6.40
2021,08,07,11,53,6.40
2021,08,07,11,54,6.40
2021,08,07,11,55,6.40
2021,08,07,11,56,3.20
2021,08,07,11,57,3.20
2021,08,07,11,58,3.20
2021,08,07,11,59,3.20
2021,08,07,12,00,3.20
2021,08,07,12,01,3.20
2021,08,07,12,02,4.80
2021,08,07,12,03,4.80
2021,08,07,12,04,6.40
2021,08,07,12,05,4.80
2021,08,07,12,06,6.40
2021,08,07,12,07,6.40
2021,08,07,12,08,6.40
2021,08,07,12,09,6.40
2021,08,07,12,11,8.00
2021,08,07,12,12,8.00
2021,08,07,12,13,8.00
2021,08,07,12,14,8.00
2021,08,07,12,15,8.00
2021,08,07,12,16,1.60
2021,08,07,12,17,1.60
2021,08,07,12,18,1.60
2021,08,07,12,19,1.60
2021,08,07,12,20,3.20
2021,08,07,12,21,1.60
2021,08,07,12,22,3.20
2021,08,07,12,23,4.80
2021,08,07,12,24,4.80
2021,08,07,12,26,1.60
2021,08,07,12,27,8.00
2021,08,07,12,28,16.10
2021,08,07,12,29,19.30
2021,08,07,12,30,19.30
2021,08,07,12,31,22.50
2021,08,07,12,32,22.50
2021,08,07,12,33,22.50
2021,08,07,12,34,22.50
2021,08,07,12,35,17.70
2021,08,07,12,36,17.70
2021,08,07,12,38,17.70
2021,08,07,12,39,17.70
2021,08,07,12,40,17.70
2021,08,07,12,41,16.10
2021,08,07,12,42,20.90
2021,08,07,12,43,24.10
2021,08,07,12,44,24.10
2021,08,07,12,45,24.10
2021,08,07,12,46,17.70
2021,08,07,12,47,17.70
2021,08,07,12,48,17.70
2021,08,07,12,49,17.70
2021,08,07,12,50,14.50
2021,08,07,12,51,14.50
2021,08,07,12,52,14.50
2021,08,07,12,53,17.70
2021,08,07,12,54,17.70
2021,08,07,12,55,16.10
2021,08,07,12,56,17.70
2021,08,07,12,58,19.30
2021,08,07,12,59,19.30
2021,08,07,13,00,19.30
2021,08,07,13,01,20.90
2021,08,07,13,02,22.50
2021,08,07,13,03,25.70
2021,08,07,13,04,25.70
2021,08,07,13,05,25.70
2021,08,07,13,06,25.70
2021,08,07,13,07,27.40
2021,08,07,13,08,29.00
2021,08,07,13,09,29.00
2021,08,07,13,10,24.10
2021,08,07,13,11,24.10
2021,08,07,13,12,25.70
2021,08,07,13,13,25.70
2021,08,07,13,15,29.00
2021,08,07,13,16,29.00
2021,08,07,13,17,30.60
2021,08,07,13,18,30.60
2021,08,07,13,19,30.60
2021,08,07,13,20,30.60
2021,08,07,13,21,35.40
2021,08,07,13,22,35.40
2021,08,07,13,23,35.40
2021,08,07,13,24,35.40
2021,08,07,13,25,30.60
2021,08,07,13,26,30.60
2021,08,07,13,28,30.60
2021,08,07,13,29,35.40
2021,08,07,13,30,35.40
2021,08,07,13,31,33.80
2021,08,07,13,32,33.80
2021,08,07,13,33,33.80
2021,08,07,13,34,33.80
2021,08,07,13,35,33.80
2021,08,07,13,36,35.40
2021,08,07,13,37,35.40
2021,08,07,13,38,35.40
2021,08,07,13,39,35.40
2021,08,07,13,41,33.80
2021,08,07,13,42,35.40
2021,08,07,13,43,35.40
2021,08,07,13,44,35.40
2021,08,07,13,45,35.40
2021,08,07,13,46,33.80
2021,08,07,13,47,35.40
2021,08,07,13,48,35.40
2021,08,07,13,49,35.40
2021,08,07,13,50,33.80
2021,08,07,13,52,33.80
2021,08,07,13,53,33.80
2021,08,07,13,54,33.80
2021,08,07,13,55,33.80
2021,08,07,13,57,33.80
2021,08,07,13,58,33.80
2021,08,07,13,59,33.80
2021,08,07,14,00,33.80
2021,08,07,14,01,33.80
2021,08,07,14,02,33.80
2021,08,07,14,04,33.80
2021,08,07,14,05,33.80
2021,08,07,14,06,30.60
2021,08,07,14,07,32.20
2021,08,07,14,08,32.20
2021,08,07,14,09,32.20
2021,08,07,14,10,32.20
2021,08,07,14,11,29.00
2021,08,07,14,12,29.00
2021,08,07,14,13,29.00
2021,08,07,14,14,29.00
2021,08,07,14,15,27.40
2021,08,07,14,16,29.00
2021,08,07,14,17,29.00
2021,08,07,14,18,32.20
2021,08,07,14,20,32.20
2021,08,07,14,21,25.70
2021,08,07,14,22,35.40
2021,08,07,14,23,35.40
2021,08,07,14,24,35.40
2021,08,07,14,25,30.60
2021,08,07,14,27,33.80
2021,08,07,14,28,37.00
2021,08,07,14,29,37.00
2021,08,07,14,30,37.00
2021,08,07,14,31,22.50
2021,08,07,14,32,33.80
2021,08,07,14,33,37.00
2021,08,07,14,34,37.00
2021,08,07,14,35,37.00
2021,08,07,14,36,37.00
2021,08,07,14,37,37.00
2021,08,07,14,38,37.00
2021,08,07,14,39,37.00
2021,08,07,14,40,19.30
2021,08,07,14,41,29.00
2021,08,07,14,42,43.50
2021,08,07,14,43,43.50
2021,08,07,14,44,43.50
2021,08,07,14,45,35.40
2021,08,07,14,46,35.40
2021,08,07,14,47,35.40
2021,08,07,14,48,35.40
2021,08,07,14,49,37.00
2021,08,07,14,50,30.60
2021,08,07,14,51,30.60
2021,08,07,14,52,33.80
2021,08,07,14,53,33.80
2021,08,07,14,54,33.80
2021,08,07,14,55,25.70
2021,08,07,14,56,25.70
2021,08,07,14,58,25.70
2021,08,07,14,59,38.60
2021,08,07,15,00,29.00
2021,08,07,15,01,35.40
2021,08,07,15,02,35.40
2021,08,07,15,03,38.60
2021,08,07,15,04,38.60
2021,08,07,15,05,35.40
2021,08,07,15,06,35.40
2021,08,07,15,08,35.40
2021,08,07,15,09,46.70
2021,08,07,15,10,41.80
2021,08,07,15,12,45.10
2021,08,07,15,13,49.90
2021,08,07,15,15,49.90
2021,08,07,15,16,41.80
2021,08,07,15,17,41.80
2021,08,07,15,18,41.80
2021,08,07,15,19,41.80
2021,08,07,15,20,25.70
2021,08,07,15,21,30.60
2021,08,07,15,22,30.60
2021,08,07,15,23,41.80
2021,08,07,15,25,46.70
2021,08,07,15,26,30.60
2021,08,07,15,27,37.00
2021,08,07,15,28,45.10
2021,08,07,15,29,45.10
2021,08,07,15,30,37.00
2021,08,07,15,31,40.20
2021,08,07,15,32,40.20
2021,08,07,15,33,40.20
2021,08,07,15,34,40.20
2021,08,07,15,35,48.30
2021,08,07,15,36,48.30
2021,08,07,15,37,48.30
2021,08,07,15,38,48.30
2021,08,07,15,39,48.30
2021,08,07,15,40,27.40
2021,08,07,15,41,32.20
2021,08,07,15,42,38.60
2021,08,07,15,44,38.60
2021,08,07,15,45,25.70
2021,08,07,15,46,25.70
2021,08,07,15,48,38.60
2021,08,07,15,49,46.70
2021,08,07,15,50,32.20
2021,08,07,15,52,33.80
2021,08,07,15,53,51.50
2021,08,07,15,54,51.50
2021,08,07,15,55,35.40
2021,08,07,15,56,38.60
2021,08,07,15,57,43.50
2021,08,07,15,58,43.50
2021,08,07,15,59,43.50
2021,08,07,16,01,38.60
2021,08,07,16,02,40.20
2021,08,07,16,03,40.20
2021,08,07,16,04,40.20
2021,08,07,16,05,37.00
2021,08,07,16,06,38.60
2021,08,07,16,07,40.20
2021,08,07,16,08,40.20
2021,08,07,16,09,40.20
2021,08,07,16,10,29.00
2021,08,07,16,12,35.40
2021,08,07,16,13,35.40
2021,08,07,16,14,38.60
2021,08,07,16,16,35.40
2021,08,07,16,17,41.80
2021,08,07,16,18,41.80
2021,08,07,16,19,41.80
2021,08,07,16,20,37.00
2021,08,07,16,21,37.00
2021,08,07,16,22,37.00
2021,08,07,16,24,40.20
2021,08,07,16,25,40.20
2021,08,07,16,26,40.20
2021,08,07,16,27,41.80
2021,08,07,16,28,45.10
2021,08,07,16,29,45.10
2021,08,07,16,30,35.40
2021,08,07,16,31,45.10
2021,08,07,16,33,45.10
2021,08,07,16,34,45.10
2021,08,07,16,35,25.70
2021,08,07,16,37,25.70
2021,08,07,16,38,37.00
2021,08,07,16,39,37.00
2021,08,07,16,40,29.00
2021,08,07,16,41,30.60
2021,08,07,16,42,30.60
2021,08,07,16,43,30.60
2021,08,07,16,44,35.40
2021,08,07,16,45,32.20
2021,08,07,16,46,32.20
2021,08,07,16,47,33.80
2021,08,07,16,48,45.10
2021,08,07,16,49,45.10
2021,08,07,16,50,32.20
2021,08,07,16,51,35.40
2021,08,07,16,52,35.40
2021,08,07,16,53,35.40
2021,08,07,16,54,35.40
2021,08,07,16,55,25.70
2021,08,07,16,56,25.70
2021,08,07,16,57,32.20
2021,08,07,16,58,32.20
2021,08,07,16,59,32.20
2021,08,07,17,00,27.40
2021,08,07,17,01,35.40
2021,08,07,17,02,35.40
2021,08,07,17,04,35.40
2021,08,07,17,05,22.50
2021,08,07,17,07,30.60
2021,08,07,17,08,32.20
2021,08,07,17,10,32.20
2021,08,07,17,11,33.80
2021,08,07,17,12,33.80
2021,08,07,17,13,33.80
2021,08,07,17,14,33.80
2021,08,07,17,15,33.80
2021,08,07,17,16,27.40
2021,08,07,17,17,29.00
2021,08,07,17,18,35.40
2021,08,07,17,19,35.40
2021,08,07,17,20,35.40
2021,08,07,17,21,30.60
2021,08,07,17,22,30.60
2021,08,07,17,23,30.60
2021,08,07,17,24,30.60
2021,08,07,17,25,30.60
2021,08,07,17,26,29.00
2021,08,07,17,27,29.00
2021,08,07,17,28,29.00
2021,08,07,17,29,29.00
2021,08,07,17,30,29.00
2021,08,07,17,31,29.00
2021,08,07,17,32,29.00
2021,08,07,17,33,29.00
2021,08,07,17,34,29.00
2021,08,07,17,35,29.00
2021,08,07,17,36,17.70
2021,08,07,17,37,25.70
2021,08,07,17,38,29.00
2021,08,07,17,39,29.00
2021,08,07,17,40,29.00
2021,08,07,17,41,22.50
2021,08,07,17,42,24.10
2021,08,07,17,43,27.40
2021,08,07,17,44,29.00
2021,08,07,17,45,29.00
2021,08,07,17,46,16.10
2021,08,07,17,47,22.50
2021,08,07,17,48,25.70
2021,08,07,17,49,30.60
2021,08,07,17,50,35.40
2021,08,07,17,51,27.40
2021,08,07,17,52,32.20
2021,08,07,17,53,32.20
2021,08,07,17,54,32.20
2021,08,07,17,55,32.20
2021,08,07,17,56,29.00
2021,08,07,17,57,29.00
2021,08,07,17,58,30.60
2021,08,07,17,59,37.00
2021,08,07,18,00,37.00
2021,08,07,18,01,17.70
2021,08,07,18,02,20.90
2021,08,07,18,03,25.70
2021,08,07,18,04,29.00
2021,08,07,18,05,32.20
2021,08,07,18,06,19.30
2021,08,07,18,07,29.00
2021,08,07,18,08,29.00
2021,08,07,18,09,29.00
2021,08,07,18,10,29.00
2021,08,07,18,11,24.10
2021,08,07,18,12,24.10
2021,08,07,18,13,24.10
2021,08,07,18,14,24.10
2021,08,07,18,15,24.10
2021,08,07,18,16,27.40
2021,08,07,18,17,27.40
2021,08,07,18,18,27.40
2021,08,07,18,19,27.40
2021,08,07,18,20,27.40
2021,08,07,18,21,22.50
2021,08,07,18,22,22.50
2021,08,07,18,23,29.00
2021,08,07,18,24,29.00
2021,08,07,18,25,29.00
2021,08,07,18,26,20.90
2021,08,07,18,27,25.70
2021,08,07,18,28,29.00
2021,08,07,18,29,29.00
2021,08,07,18,30,29.00
2021,08,07,18,31,24.10
2021,08,07,18,32,24.10
2021,08,07,18,33,32.20
2021,08,07,18,34,33.80
2021,08,07,18,35,33.80